When you browse on this site, cookies collect data to enhance your experience and personalize the content and advertising you see.
Visit our Privacy Policy to learn more. By continuing to use the site, you agree to this use of cookies and data.

Hourly Weather Zapolnyy Olhovec

Today, 6 July, Monday

Time Temperature Precipitation Wind Pressure Humidity
00:00 +19°C° 0 mm 1 mps 735 mmHg 93%
01:00 +19°C° 0 mm 1 mps 735 mmHg 93%
02:00 +17°C° 0 mm 2 mps 735 mmHg 88%
03:00 +17°C° 0 mm 2 mps 735 mmHg 89%
04:00 +17°C° 0 mm 2 mps 735 mmHg 90%
05:00 +17°C° 0 mm 2 mps 735 mmHg 91%
06:00 +20°C° 0 mm 1 mps 735 mmHg 87%
07:00 +21°C° 0 mm 1 mps 735 mmHg 83%
08:00 +23°C° 0 mm 1 mps 735 mmHg 79%
09:00 +24°C° 0 mm 1 mps 735 mmHg 74%
10:00 +25°C° 0 mm 1 mps 735 mmHg 70%
11:00 +26°C° 0 mm 1 mps 735 mmHg 66%
12:00 +25°C° 0 mm 0 mps 735 mmHg 63%
13:00 +25°C° 0 mm 0 mps 735 mmHg 61%
14:00 +26°C° 0 mm 0 mps 735 mmHg 59%
15:00 +25°C° 0 mm 0 mps 734 mmHg 61%
16:00 +25°C° 0 mm 0 mps 734 mmHg 63%
17:00 +27°C° 0 mm 1 mps 734 mmHg 65%
18:00 +25°C° 0 mm 1 mps 734 mmHg 70%
19:00 +24°C° 0 mm 1 mps 734 mmHg 74%
20:00 +22°C° 0 mm 1 mps 734 mmHg 79%
21:00 +22°C° 0 mm 1 mps 733 mmHg 80%
22:00 +21°C° 0 mm 1 mps 733 mmHg 82%
23:00 +21°C° 0 mm 1 mps 733 mmHg 84%

Tomorrow, 7 July, Tuesday

Time Temperature Precipitation Wind Pressure Humidity
00:00 +19°C° 0 mm 2 mps 733 mmHg 85%
01:00 +19°C° 0 mm 2 mps 733 mmHg 86%
02:00 +19°C° 0 mm 2 mps 733 mmHg 88%
03:00 +19°C° 0 mm 2 mps 733 mmHg 89%
04:00 +20°C° 0 mm 2 mps 732 mmHg 90%
05:00 +20°C° 0 mm 2 mps 732 mmHg 91%
06:00 +22°C° 0 mm 3 mps 732 mmHg 88%
07:00 +24°C° 0 mm 3 mps 732 mmHg 85%
08:00 +26°C° 0 mm 4 mps 732 mmHg 81%
09:00 +27°C° 0.5 mm 4 mps 732 mmHg 78%
10:00 +28°C° 0.5 mm 4 mps 731 mmHg 74%
11:00 +29°C° 0.5 mm 4 mps 731 mmHg 71%
12:00 +30°C° 0.1 mm 4 mps 731 mmHg 70%
13:00 +30°C° 0.1 mm 5 mps 731 mmHg 68%
14:00 +30°C° 0.1 mm 5 mps 731 mmHg 67%
15:00 +30°C° 0.4 mm 4 mps 730 mmHg 71%
16:00 +29°C° 0.4 mm 4 mps 730 mmHg 74%
17:00 +29°C° 0.4 mm 3 mps 730 mmHg 78%
18:00 +28°C° 0.2 mm 3 mps 729 mmHg 80%
19:00 +26°C° 0.2 mm 3 mps 729 mmHg 82%
20:00 +25°C° 0.2 mm 3 mps 729 mmHg 83%
21:00 +24°C° 0 mm 3 mps 729 mmHg 81%
22:00 +22°C° 0 mm 3 mps 729 mmHg 79%
23:00 +22°C° 0 mm 4 mps 729 mmHg 77%

Day after tomorrow, 8 July, Wednesday

Time Temperature Precipitation Wind Pressure Humidity
00:00 +22°C° 0 mm 4 mps 729 mmHg 75%
01:00 +22°C° 0 mm 4 mps 729 mmHg 72%
02:00 +21°C° 0 mm 4 mps 729 mmHg 70%
03:00 +21°C° 0 mm 3 mps 729 mmHg 75%
04:00 +21°C° 0 mm 2 mps 728 mmHg 80%
05:00 +21°C° 0 mm 1 mps 728 mmHg 85%
06:00 +22°C° 0.4 mm 1 mps 729 mmHg 85%
07:00 +23°C° 0.4 mm 2 mps 729 mmHg 85%
08:00 +23°C° 0.4 mm 2 mps 729 mmHg 85%
09:00 +24°C° 0 mm 3 mps 730 mmHg 84%
10:00 +24°C° 0 mm 3 mps 730 mmHg 82%
11:00 +25°C° 0 mm 4 mps 731 mmHg 81%
12:00 +23°C° 0.2 mm 4 mps 731 mmHg 84%
13:00 +23°C° 0.2 mm 4 mps 731 mmHg 86%
14:00 +22°C° 0.2 mm 4 mps 731 mmHg 89%
15:00 +21°C° 0.3 mm 4 mps 731 mmHg 90%
16:00 +21°C° 0.3 mm 4 mps 732 mmHg 90%
17:00 +21°C° 0.3 mm 4 mps 732 mmHg 91%
18:00 +20°C° 0.1 mm 4 mps 732 mmHg 91%
19:00 +19°C° 0.1 mm 4 mps 732 mmHg 92%
20:00 +19°C° 0.1 mm 5 mps 732 mmHg 93%
21:00 +18°C° 0.5 mm 4 mps 732 mmHg 94%
22:00 +18°C° 0.5 mm 4 mps 732 mmHg 95%
23:00 +17°C° 0.5 mm 3 mps 732 mmHg 96%

9 July, Thursday

Time Temperature Precipitation Wind Pressure Humidity
00:00 +17°C° 0.8 mm 4 mps 732 mmHg 96%
01:00 +15°C° 0.8 mm 4 mps 732 mmHg 97%
02:00 +15°C° 0.8 mm 5 mps 732 mmHg 97%
03:00 +15°C° 0.4 mm 4 mps 732 mmHg 97%
04:00 +15°C° 0.4 mm 4 mps 732 mmHg 97%
05:00 +14°C° 0.4 mm 4 mps 732 mmHg 96%
06:00 +15°C° 1 mm 4 mps 732 mmHg 96%
07:00 +15°C° 1 mm 4 mps 732 mmHg 96%
08:00 +15°C° 1 mm 5 mps 732 mmHg 96%
09:00 +14°C° 1.5 mm 5 mps 732 mmHg 95%
10:00 +14°C° 1.5 mm 6 mps 732 mmHg 95%
11:00 +14°C° 1.5 mm 6 mps 732 mmHg 94%
12:00 +14°C° 2.8 mm 6 mps 732 mmHg 94%
13:00 +13°C° 2.8 mm 6 mps 732 mmHg 94%
14:00 +13°C° 2.8 mm 6 mps 732 mmHg 94%
15:00 +13°C° 0.2 mm 6 mps 733 mmHg 92%
16:00 +14°C° 0.2 mm 5 mps 733 mmHg 89%
17:00 +14°C° 0.2 mm 5 mps 733 mmHg 87%
18:00 +14°C° 0 mm 4 mps 734 mmHg 89%
19:00 +13°C° 0 mm 3 mps 734 mmHg 92%
20:00 +14°C° 0 mm 2 mps 734 mmHg 94%
21:00 +13°C° 0 mm 2 mps 734 mmHg 94%
22:00 +12°C° 0 mm 3 mps 735 mmHg 95%
23:00 +12°C° 0 mm 3 mps 735 mmHg 96%

10 July, Friday

Time Temperature Precipitation Wind Pressure Humidity
00:00 +12°C° 0 mm 3 mps 735 mmHg 95%
01:00 +11°C° 0 mm 3 mps 735 mmHg 95%
02:00 +11°C° 0 mm 4 mps 735 mmHg 94%
03:00 +11°C° 0 mm 4 mps 736 mmHg 94%
04:00 +11°C° 0 mm 4 mps 736 mmHg 93%
05:00 +11°C° 0 mm 4 mps 736 mmHg 93%
06:00 +13°C° 0 mm 5 mps 736 mmHg 88%
07:00 +14°C° 0 mm 5 mps 737 mmHg 83%
08:00 +16°C° 0 mm 5 mps 737 mmHg 78%
09:00 +17°C° 0 mm 5 mps 737 mmHg 74%
10:00 +19°C° 0 mm 5 mps 737 mmHg 69%
11:00 +20°C° 0 mm 6 mps 738 mmHg 65%
12:00 +20°C° 0 mm 6 mps 738 mmHg 64%
13:00 +20°C° 0 mm 5 mps 738 mmHg 64%
14:00 +20°C° 0 mm 5 mps 738 mmHg 63%
15:00 +20°C° 0 mm 5 mps 738 mmHg 66%
16:00 +20°C° 0 mm 4 mps 738 mmHg 70%
17:00 +20°C° 0 mm 3 mps 738 mmHg 74%
18:00 +18°C° 0 mm 3 mps 739 mmHg 77%
19:00 +17°C° 0 mm 2 mps 739 mmHg 80%
20:00 +15°C° 0 mm 2 mps 739 mmHg 83%
21:00 +15°C° 0 mm 2 mps 739 mmHg 85%
22:00 +14°C° 0 mm 2 mps 739 mmHg 88%
23:00 +13°C° 0 mm 2 mps 739 mmHg 90%

11 July, Saturday

Time Temperature Precipitation Wind Pressure Humidity
00:00 +13°C° 0 mm 2 mps 739 mmHg 91%
01:00 +13°C° 0 mm 2 mps 739 mmHg 91%
02:00 +12°C° 0 mm 2 mps 739 mmHg 92%
03:00 +12°C° 0 mm 3 mps 739 mmHg 91%
04:00 +12°C° 0 mm 3 mps 740 mmHg 90%
05:00 +12°C° 0 mm 3 mps 740 mmHg 89%
06:00 +14°C° 0 mm 4 mps 740 mmHg 85%
07:00 +17°C° 0 mm 4 mps 740 mmHg 81%
08:00 +17°C° 0 mm 5 mps 740 mmHg 77%
09:00 +19°C° 0 mm 6 mps 739 mmHg 75%
10:00 +20°C° 0 mm 6 mps 739 mmHg 74%
11:00 +21°C° 0 mm 7 mps 739 mmHg 72%
12:00 +22°C° 0 mm 7 mps 739 mmHg 72%
13:00 +22°C° 0 mm 7 mps 739 mmHg 71%
14:00 +23°C° 0 mm 7 mps 739 mmHg 71%
15:00 +23°C° 0 mm 6 mps 738 mmHg 74%
16:00 +22°C° 0 mm 6 mps 738 mmHg 77%
17:00 +22°C° 0 mm 5 mps 738 mmHg 80%
18:00 +21°C° 0.2 mm 5 mps 738 mmHg 83%
19:00 +20°C° 0.2 mm 5 mps 738 mmHg 85%
20:00 +19°C° 0.2 mm 5 mps 738 mmHg 88%
21:00 +19°C° 0.3 mm 4 mps 738 mmHg 90%
22:00 +19°C° 0.3 mm 4 mps 738 mmHg 92%
23:00 +18°C° 0.3 mm 4 mps 738 mmHg 94%
Show more